| Date | Temp High/Low | Dew Pt High/Low | Humidity | Wind | Max Wind | Wind Gust | Pressure | Precip. | Condition |
|---|---|---|---|---|---|---|---|---|---|
| 7/31/2019 | 50 °F / 41 °F | 45 °F / 41 °F | 92 % | 17 mph | - | 29.79 in | 0 in | ||
| 7/30/2019 | 55 °F / 39 °F | 45 °F / 37 °F | 85 % | 8 mph | - | 29.71 in | 0 in | ||
| 7/29/2019 | 52 °F / 39 °F | 43 °F / 39 °F | 87 % | 18 mph | - | 29.64 in | 0 in | ||
| 7/28/2019 | 64 °F / 45 °F | 45 °F / 37 °F | 65 % | 12 mph | - | 29.47 in | 0 in | ||
| 7/27/2019 | 52 °F / 46 °F | 46 °F / 41 °F | 79 % | 32 mph | - | 29.54 in | 0 in | ||
| 7/26/2019 | 50 °F / 45 °F | 45 °F / 41 °F | 89 % | 15 mph | - | 29.6 in | 0 in | ||
| 7/25/2019 | 48 °F / 43 °F | 45 °F / 43 °F | 93 % | 12 mph | - | 29.58 in | 0 in | ||
| 7/24/2019 | 48 °F / 43 °F | 43 °F / 41 °F | 87 % | 15 mph | - | 29.67 in | 0 in | ||
| 7/23/2019 | 46 °F / 41 °F | 43 °F / 39 °F | 93 % | 21 mph | - | 29.47 in | 0 in | ||
| 7/22/2019 | 55 °F / 41 °F | 45 °F / 41 °F | 88 % | 10 mph | - | 29.53 in | 0 in | ||
| 7/21/2019 | 52 °F / 41 °F | 43 °F / 41 °F | 87 % | 9 mph | - | 29.56 in | 0 in | ||
| 7/20/2019 | 61 °F / 43 °F | 46 °F / 41 °F | 79 % | 10 mph | - | 29.54 in | 0 in | ||
| 7/19/2019 | 52 °F / 41 °F | 45 °F / 41 °F | 88 % | 13 mph | - | 29.59 in | 0 in | ||
| 7/18/2019 | 57 °F / 48 °F | 46 °F / 41 °F | 81 % | 26 mph | - | 29.44 in | 0 in | ||
| 7/17/2019 | 52 °F / 45 °F | 48 °F / 45 °F | 89 % | 30 mph | - | 29.51 in | 0 in | ||
| 7/16/2019 | 54 °F / 45 °F | 46 °F / 41 °F | 84 % | 43 mph | - | 29.47 in | 0 in | ||
| 7/15/2019 | 54 °F / 43 °F | 43 °F / 37 °F | 79 % | 14 mph | - | 29.57 in | 0 in | ||
| 7/14/2019 | 66 °F / 48 °F | 46 °F / 37 °F | 62 % | 12 mph | - | 29.59 in | 0 in | ||
| 7/13/2019 | 52 °F / 43 °F | 46 °F / 41 °F | 87 % | 20 mph | - | 29.7 in | 0 in | ||
| 7/12/2019 | 50 °F / 41 °F | 43 °F / 39 °F | 89 % | 17 mph | - | 29.64 in | 0 in | ||
| 7/11/2019 | 52 °F / 41 °F | 43 °F / 39 °F | 85 % | 9 mph | - | 29.63 in | 0 in | ||
| 7/10/2019 | 45 °F / 41 °F | 43 °F / 39 °F | 92 % | 17 mph | - | 29.62 in | 0 in | ||
| 7/9/2019 | 57 °F / 43 °F | 43 °F / 41 °F | 77 % | 18 mph | - | 29.58 in | 0 in | ||
| 7/8/2019 | 72 °F / 50 °F | 45 °F / 34 °F | 52 % | 14 mph | - | 29.49 in | 0 in | ||
| 7/7/2019 | 66 °F / 48 °F | 45 °F / 39 °F | 59 % | 12 mph | - | 29.57 in | 0 in | ||
| 7/6/2019 | 61 °F / 48 °F | 43 °F / 36 °F | 61 % | 16 mph | - | 29.65 in | 0 in | ||
| 7/5/2019 | 61 °F / 48 °F | 37 °F / 34 °F | 51 % | 10 mph | - | 29.86 in | 0 in | ||
| 7/4/2019 | 57 °F / 43 °F | 41 °F / 34 °F | 63 % | 16 mph | - | 29.83 in | 0 in | ||
| 7/3/2019 | 57 °F / 39 °F | 41 °F / 36 °F | 69 % | 14 mph | - | 29.75 in | 0 in | ||
| 7/2/2019 | 52 °F / 37 °F | 37 °F / 36 °F | 80 % | 15 mph | - | 29.62 in | 0 in | ||
| 7/1/2019 | 48 °F / 37 °F | 37 °F / 36 °F | 81 % | 12 mph | - | 29.7 in | 0 in |